GW0458 Weather Reports


time (UTC)temp
F
wind
direction
speed
knots
gust
knots
rain 1hr
in
rain 24hr
in
rain mn
in
humidity
%
barometer
mb
20260506004752 63 201 0.9 0.9 0.00 0.00 0.00 77 1022.9
20260506001748 64 216 0.0 0.9 0.00 0.00 0.00 76 1022.9
20260505234743 63 65 0.0 0.9 0.00 0.00 0.00 75 1023.2
20260505231743 64 221 0.9 0.9 0.00 0.00 0.00 75 1023.5
20260505224743 63 198 0.9 0.9 0.00 0.00 0.00 77 1023.7
20260505221742 61 190 0.9 0.9 0.00 0.00 0.00 80 1023.8
20260505214738 62 210 0.0 0.0 0.00 0.00 0.00 79 1024.1
20260505211737 60 208 0.0 0.9 0.00 0.00 0.00 81 1024.0
20260505204737 60 207 0.0 0.0 0.00 0.00 0.00 84 1024.3
20260505201735 59 215 0.9 0.9 0.00 0.00 0.00 84 1024.1
20260505194730 59 212 0.0 0.0 0.00 0.00 0.00 85 1024.1
20260505191725 58 211 0.0 0.0 0.00 0.00 0.00 85 1024.0
20260505184720 58 208 0.0 0.0 0.00 0.00 0.00 87 1024.1
20260505181719 58 206 0.0 0.0 0.00 0.00 0.00 87 1024.0
20260505174717 57 176 0.9 0.9 0.00 0.00 0.00 88 1023.9
20260505171712 57 206 0.0 0.0 0.00 0.00 0.00 88 1024.0
20260505164712 56 207 0.0 0.0 0.00 0.00 0.00 90 1023.9
20260505161708 56 206 0.0 0.0 0.00 0.00 0.00 90 1023.7
20260505151702 55 206 0.0 0.0 0.00 0.00 0.00 93 1023.4
20260505124648 54 206 0.0 0.0 0.00 0.00 0.00 93 1022.0
20260505121646 54 188 0.9 0.9 0.00 0.00 0.00 93 1022.0
20260505114642 54 197 0.0 0.0 0.00 0.00 0.00 94 1021.7
20260505111636 54 168 1.7 1.7 0.00 0.00 0.00 93 1021.5
20260505101629 54 203 0.0 0.0 0.00 0.00 0.00 94 1021.4
20260505094625 54 196 0.0 0.9 0.00 0.00 0.00 94 1021.3
20260505091625 54 186 0.9 0.9 0.00 0.00 0.00 95 1021.0
20260505084623 53 179 0.9 0.9 0.00 0.00 0.00 97 1020.8
20260505081621 53 193 0.0 0.0 0.00 0.00 0.00 96 1020.9
20260505074618 53 185 0.9 0.9 0.00 0.00 0.00 96 1020.6
20260505071616 54 205 0.0 0.0 0.00 0.00 0.00 94 1020.2
20260505064615 55 198 0.0 0.0 0.00 0.00 0.00 92 1019.9
20260505061615 55 208 0.0 0.0 0.00 0.00 0.00 91 1019.5
20260505054613 56 197 0.0 0.9 0.00 0.00 0.00 89 1019.2
20260505051614 58 201 0.0 0.0 0.00 0.00 0.00 85 1019.1
20260505041606 62 200 0.0 0.0 0.00 0.00 0.00 78 1018.4
20260505034605 64 201 0.0 0.0 0.00 0.00 0.00 74 1018.0
20260505031600 68 213 0.0 0.0 0.00 0.00 0.00 67 1017.3
20260505024558 70 205 0.0 0.0 0.00 0.00 0.00 66 1016.9
20260505021553 73 208 0.0 0.0 0.00 0.00 0.00 62 1016.9
20260505014549 75 206 0.0 0.0 0.00 0.00 0.00 57 1016.5
20260505011548 76 206 0.0 0.0 0.00 0.00 0.00 55 1016.7